Location: Sungai Bunut
(2.6333°N, 113.7333°E)
Time: 17:42:44
(UTC+00:00)

S-56A Canister/Altair - Pass Details

Date: 08 December 2023
Orbit: 640 x 2488 km, 38.9° (Epoch: 20 February)

Event Time Altitude Azimuth Distance (km) Brightness Sun altitude
Rises 14:29:15 0° 250° (WSW) 5,018 12.2 -57.1°
Reaches altitude 10° 14:36:28 10° 219° (SW) 4,517 11.8 -58.4°
Maximum altitude 14:39:44 11° 204° (SSW) 4,593 11.7 -59.0°
Drops below altitude 10° 14:43:13 10° 188° (S) 4,857 11.8 -59.7°
Sets 14:52:23 0° 158° (SSE) 6,128 12.3 -61.3°
